Lapse_Rate
6.6 6.7 6.5 6.4 6.7 6.4 6.5 6.7 6.4 6.6 6.0 5.8 6.0 5.9 6.3 6.3 6.2 6.3 6.0 6.2 6.1 5.8 6.1 6.0 6.2 6.5 6.3 5.9 5.8 5.6 5.6 5.6 5.7
6.8 6.8 6.5 6.5 6.7 6.8 6.5 6.5 6.4 6.4 6.3 5.7 6.2 6.0 6.4 6.6 6.1 6.2 5.9 5.6 5.8 5.9 5.8 5.6 6.0 6.1 6.2 6.0 5.8 5.8 5.5 5.3 5.6
6.7 6.6 6.4 6.8 7.0 6.8 6.5 6.5 6.8 6.2 6.4 6.4 5.9 5.8 6.0 6.5 6.3 6.1 6.1 5.7 5.4 5.6 5.8 5.8 5.7 5.7 5.8 5.8 5.7 5.9 6.0 5.6 5.4
6.5 6.7 6.3 6.6 6.8 6.4 6.3 6.3 6.5 6.8 6.5 6.4 6.0 6.1 6.0 5.9 6.5 5.9 5.8 5.8 5.9 5.8 5.6 5.6 5.6 5.6 6.0 6.3 6.0 5.9 5.8 5.8 5.6
6.7 6.5 6.7 7.0 6.9 6.1 5.9 5.9 6.1 6.1 6.6 6.4 6.2 6.1 6.0 6.2 6.1 6.4 6.0 5.8 5.7 6.1 6.0 5.9 5.8 5.7 5.7 5.9 6.1 5.9 5.9 5.9 5.8
7.0 6.8 6.9 6.6 6.6 6.4 5.9 5.9 5.7 6.0 6.1 5.6 5.6 6.3 6.0 6.0 5.9 6.2 6.7 6.4 6.1 6.0 5.9 5.9 5.7 5.9 5.9 6.0 6.2 5.9 6.0 6.0 5.8
7.6 7.1 6.9 6.5 6.6 6.4 6.0 6.4 6.0 5.6 5.3 5.5 5.9 5.8 6.0 6.0 5.5 5.8 6.3 6.6 6.2 6.3 6.5 6.2 6.2 6.0 6.0 6.1 6.2 6.0 6.2 6.2 6.1
7.9 7.2 6.8 6.6 6.8 6.7 6.5 6.5 6.4 6.3 5.8 5.8 5.8 5.8 5.9 5.1 4.9 5.2 6.0 6.7 6.6 6.1 6.0 6.2 6.5 6.3 6.0 6.1 6.2 6.1 5.8 5.8 6.0
7.9 7.4 7.0 6.9 6.9 6.9 6.8 6.7 6.7 6.7 6.4 6.1 5.9 5.5 5.4 5.1 5.1 5.1 5.6 6.2 6.5 6.3 6.1 6.0 6.0 6.1 6.2 6.2 5.9 5.8 5.9 6.0 6.1
7.7 7.1 7.1 7.1 7.0 6.9 6.6 6.5 6.5 6.7 6.8 6.6 6.3 5.9 5.5 5.5 5.8 6.3 6.0 6.0 5.9 6.1 5.9 5.9 6.2 6.5 6.2 5.9 5.9 6.0 6.1 6.2 6.1
7.1 6.9 6.8 7.1 6.9 7.0 6.9 6.6 6.4 6.5 6.6 6.5 6.4 6.4 6.3 5.6 5.4 5.9 6.0 6.0 6.1 6.3 6.2 6.2 6.1 6.1 6.4 6.1 6.2 6.1 6.3 6.3 6.3
7.0 7.0 6.9 6.9 6.8 6.9 6.9 6.8 6.6 6.4 6.4 6.2 6.0 6.0 6.4 6.5 6.2 5.9 5.5 5.6 5.8 6.1 6.3 5.9 6.1 6.2 6.1 6.2 6.2 5.9 6.1 6.0 6.0
7.2 7.5 6.9 6.9 7.0 6.9 6.8 6.9 6.8 6.8 6.6 6.5 6.3 5.9 5.5 5.8 6.0 6.0 5.8 5.6 5.7 5.7 5.8 5.7 5.8 5.9 6.2 6.4 6.3 6.1 6.1 6.1 6.0
7.6 7.9 7.2 7.0 7.0 6.7 6.7 6.7 6.7 6.5 6.5 6.6 6.7 6.5 6.1 5.9 6.0 6.1 6.2 6.0 5.9 5.6 5.7 5.3 5.6 5.5 5.8 5.7 6.0 6.2 6.1 5.8 5.9
7.8 7.9 7.5 7.2 7.0 6.8 6.7 6.7 6.7 6.5 6.5 6.6 6.7 6.5 6.3 6.2 6.1 5.9 5.9 6.1 6.1 6.0 5.6 5.6 5.5 5.5 5.5 5.8 6.0 5.9 6.0 5.9 5.5
8.1 7.8 7.5 7.4 7.1 6.7 6.6 6.5 6.4 6.2 6.2 6.3 6.6 6.5 6.4 6.2 6.2 6.0 5.8 5.8 6.0 6.0 5.9 5.8 5.8 5.8 5.8 5.6 5.5 5.5 5.7 5.8 5.6
8.0 7.7 7.5 7.1 6.9 7.1 7.1 6.6 6.5 6.5 6.2 6.3 6.4 6.7 6.6 6.4 6.2 6.0 5.8 5.8 5.8 5.9 6.0 6.0 6.0 6.0 6.0 5.9 5.9 5.7 5.5 5.5 5.5
8.0 7.6 7.3 7.2 7.3 7.0 6.7 6.6 6.5 6.4 6.4 6.1 5.9 6.2 6.6 6.5 6.1 6.1 5.9 5.8 5.7 5.7 5.8 5.9 5.9 5.9 5.9 5.9 5.9 5.9 5.6 5.6 5.4
7.9 7.7 7.6 7.4 6.9 6.7 6.6 6.4 6.5 6.4 6.2 6.0 5.9 5.9 6.1 6.2 6.0 5.8 5.7 5.5 5.4 5.4 5.5 5.5 5.6 5.5 5.5 5.7 5.7 5.7 5.9 5.7 5.5
8.0 7.8 7.4 6.9 6.8 6.7 6.5 6.2 6.1 6.6 6.2 6.3 6.1 6.0 5.8 5.8 5.6 5.5 5.6 5.1 5.0 4.9 5.0 5.1 5.2 5.1 5.1 5.2 5.1 4.8 4.9 5.1 5.2
Wind_Speed
13 13 11 13 13 6 5 6 8 8 7 9 9 9 9 7 8 5 5 6 5 4 4 4 4 6 6 7 7 6 4 3 3
14 14 13 10 6 13 10 10 8 8 6 6 11 13 8 8 8 7 7 8 5 4 4 4 5 6 6 5 5 6 5 4 4
7 10 13 9 9 9 10 10 7 9 7 9 8 9 8 9 9 8 8 6 6 6 6 5 6 7 9 7 6 6 5 4 4
10 14 11 10 8 7 5 5 8 7 6 7 7 6 4 6 7 8 6 6 6 6 6 7 7 8 7 7 6 5 6 7 6
6 7 8 10 11 11 7 7 8 6 5 5 6 5 2 5 3 7 9 8 7 6 7 7 9 6 6 6 6 6 7 7 6
11 11 8 6 6 7 9 8 8 6 6 5 5 7 5 5 7 6 10 11 10 9 10 9 7 7 7 7 7 6 6 7 7
14 12 10 8 6 6 5 8 10 10 8 6 6 4 3 10 8 6 5 10 11 11 12 11 9 7 7 8 8 7 7 6 6
11 12 12 12 8 7 6 7 8 7 6 7 7 7 10 11 10 7 3 5 6 8 8 11 12 10 9 8 8 7 7 6 7
14 13 11 8 8 9 8 8 9 9 9 8 6 6 5 6 6 7 6 6 6 6 7 8 10 11 11 11 9 12 12 9 6
16 15 12 9 8 8 7 7 7 9 10 6 8 9 9 8 6 6 5 7 3 7 6 8 10 11 11 11 10 13 14 15 7
13 13 13 8 8 7 6 6 6 6 6 7 7 7 9 7 6 6 9 7 5 6 5 8 7 9 9 10 9 14 16 16 9
13 14 12 8 8 7 6 7 6 6 3 4 4 5 6 5 5 8 10 11 9 9 5 7 10 8 10 9 10 14 16 9 6
14 16 16 14 9 8 8 4 6 6 2 3 2 3 4 5 4 1 2 3 5 5 3 4 3 6 5 6 8 7 13 11 7
19 17 15 13 11 8 8 7 6 4 3 2 1 5 5 5 4 3 3 2 2 2 2 2 2 2 1 2 4 6 8 10 6
17 16 14 14 12 9 7 8 8 5 5 1 3 5 5 5 4 3 3 3 3 3 3 3 2 4 3 1 2 6 2 6 7
15 16 14 12 12 9 5 7 8 7 5 2 3 3 6 4 5 5 4 4 3 2 3 2 2 1 1 1 2 3 6 6 9
12 8 10 8 11 10 8 6 7 7 7 4 4 3 4 4 5 5 4 3 3 2 2 2 1 1 0 1 2 3 3 2 2
8 8 7 11 11 11 11 8 7 7 7 7 5 4 3 4 4 5 4 4 2 2 2 2 1 1 0 1 2 2 3 1 1
8 8 6 7 8 11 12 10 9 8 7 7 6 5 4 4 3 3 3 3 3 9 6 8 10 8 5 2 4 5 4 7 11
8 8 8 9 12 13 12 10 9 6 7 7 6 5 5 4 6 4 3 3 3 3 3 9 12 10 8 10 2 5 10 9 11
Wind_Direction
184 182 179 186 192 178 204 199 198 182 184 199 201 204 195 183 192 198 222 214 213 212 212 219 227 210 202 204 214 229 212 201 223
184 188 187 189 171 158 195 199 187 191 202 206 200 206 207 193 183 186 211 233 208 214 224 216 215 197 207 215 226 231 215 209 216
157 172 184 179 167 162 182 205 212 222 190 216 222 207 205 223 194 189 200 211 222 220 224 210 186 196 196 193 208 230 235 228 225
176 187 171 173 179 166 175 177 204 227 143 135 109 63 342 234 218 196 200 211 222 204 210 203 208 207 193 199 219 237 213 221 201
133 148 175 170 182 154 145 185 183 197 171 131 146 173 161 299 244 239 200 208 213 181 207 208 211 211 206 211 221 234 205 212 199
151 167 175 138 138 168 162 178 177 179 185 189 159 155 152 246 274 216 232 209 208 181 203 222 223 200 208 221 230 227 226 206 208
140 140 141 164 185 202 197 187 177 188 188 193 165 187 180 226 234 208 231 241 211 198 197 205 218 222 215 217 229 224 218 219 217
140 137 144 154 166 143 142 157 191 191 190 184 179 187 212 220 240 219 208 255 232 221 190 207 211 216 224 228 224 227 218 217 220
152 155 169 165 160 138 144 166 188 191 207 209 191 223 219 218 223 257 233 227 203 189 212 212 209 209 211 215 228 223 212 204 209
160 163 169 168 158 153 154 163 151 181 201 186 194 213 222 220 212 250 260 255 235 238 229 213 211 218 213 217 218 217 217 218 215
155 148 157 159 148 148 154 156 151 162 167 182 199 215 232 232 243 269 268 249 226 252 253 255 232 236 225 220 222 215 220 223 218
148 147 148 150 144 145 147 154 154 143 173 192 177 183 190 213 220 239 253 268 267 261 253 253 240 217 218 219 231 214 220 208 217
136 136 138 139 135 130 131 151 140 134 160 89 91 136 146 127 114 106 141 226 222 226 225 243 264 253 236 241 249 244 225 197 211
140 142 143 136 135 142 152 149 135 130 107 51 282 122 106 87 66 47 44 357 15 319 280 226 254 278 141 200 248 243 221 230 239
143 141 135 134 136 148 158 136 120 117 97 19 48 119 114 113 86 39 16 53 26 26 5 350 222 181 186 250 9 18 260 218 211
143 143 146 147 149 144 152 134 132 131 160 144 80 152 137 137 107 77 34 29 24 18 11 23 40 144 168 28 351 336 348 298 249
146 142 150 150 142 148 155 153 145 144 147 127 114 22 146 114 88 81 51 38 18 22 12 38 70 95 93 290 317 323 327 317 307
151 160 154 158 157 157 161 156 159 159 153 139 128 120 138 127 114 103 97 78 31 12 64 315 50 73 59 245 289 290 298 160 75
164 158 152 153 156 153 160 168 169 171 160 151 150 147 134 154 132 134 133 115 88 55 36 32 33 35 37 4 36 75 78 97 101
169 162 162 163 167 164 165 171 168 167 152 145 151 146 140 148 150 164 161 136 124 110 38 65 48 29 34 29 13 108 104 74 73